Preview of NWS' New Version of Forecast
This preview is not operational and should not be used for support decisions.

Regional Weather Roundup (RWR)

Issued by National Weather Service (NWS)

                            
000
ASUS43 KDTX 181801
RWRMI 
MICHIGAN HOURLY REGIONAL WEATHER ROUNDUP
NATIONAL WEATHER SERVICE DETROIT/PONTIAC MI
200 PM EDT TUE JUN 18 2019

NOTE: "FAIR" INDICATES FEW OR NO CLOUDS BELOW 12,000 FEET WITH NO
SIGNIFICANT WEATHER AND/OR OBSTRUCTION TO VISIBILITY.

MIZ047>049-052>055-059>063-066>070-074>076-081>083-181900-
SOUTHEAST LOWER MICHIGAN
  
CITY           SKY/WX    TMP DP  RH WIND       PRES   REMARKS
ADRIAN         PTSUNNY   74  60  61 S7        29.96F                  
6HR MIN TEMP:  63; 6HR MAX TEMP:  74;                                

ANN ARBOR      PTSUNNY   74  61  63 S6        29.94F                  
BAD AXE        FAIR      75  52  44 SW5       29.94F                  
6HR MIN TEMP:  58; 6HR MAX TEMP:  75;                                

CARO           PTSUNNY   74  59  59 E3        29.93F                  
DETROIT CITY   PTSUNNY   74  60  61 E8        29.95F                  
6HR MIN TEMP:  61; 6HR MAX TEMP:  74;                                

DETROIT        PTSUNNY   75  58  55 SE5       29.95F                  
6HR MIN TEMP:  62; 6HR MAX TEMP:  75;                                

FLINT          PTSUNNY   75  58  55 W6        29.94F                  
6HR MIN TEMP:  63; 6HR MAX TEMP:  77;                                

GROSSE ILE     CLOUDY    70  60  72 S6        29.95F                  
6HR MIN TEMP:  62; 6HR MAX TEMP:  71;                                

HOWELL         PTSUNNY   74  57  55 CALM      29.95S                  
6HR MIN TEMP:  63; 6HR MAX TEMP:  76;                                


CITY           SKY/WX    TMP DP  RH WIND       PRES   REMARKS
JACKSON        PTSUNNY   74  62  66 CALM      29.95F                  
6HR MIN TEMP:  61; 6HR MAX TEMP:  76;                                

LAMBERTVILLE   CLOUDY    74  62  65 E3        29.95S                  
6HR MIN TEMP:  63; 6HR MAX TEMP:  74;                                

LANSING        CLOUDY    77  61  57 VRB5      29.95F                  
6HR MIN TEMP:  65; 6HR MAX TEMP:  77;                                

LAPEER         PTSUNNY   73  58  59 CALM      29.95F                  
6HR MIN TEMP:  60; 6HR MAX TEMP:  74;                                

MASON          CLOUDY    75  62  64 CALM      29.95F                  
6HR MIN TEMP:  63; 6HR MAX TEMP:  75;                                

MONROE         CLOUDY    75  64  68 CALM      29.94F                  
6HR MIN TEMP:  62; 6HR MAX TEMP:  75;                                

PONTIAC        PTSUNNY   73  60  63 VRB3      29.94F                  
6HR MIN TEMP:  63; 6HR MAX TEMP:  74;                                

PORT HOPE        N/A     60  52  74 E7        29.94F                  
6HR MIN TEMP:  54; 6HR MAX TEMP:  61;                                

PORT HURON     CLOUDY    75  57  53 CALM      29.94F                  
TRI CITIES     FAIR      76  56  49 VRB3      29.95F                  
6HR MIN TEMP:  62; 6HR MAX TEMP:  76;                                

MIDLAND        FAIR      78  57  47 S6        29.93S                  
6HR MIN TEMP:  57; 6HR MAX TEMP:  78;                                

TROY           PTSUNNY   74  56  51 S3        29.96F                  
$$
MIZ043>046-050>051-056>058-064>065-071>073-077>080-181900-
SOUTHWEST LOWER MICHIGAN
  
CITY           SKY/WX    TMP DP  RH WIND       PRES   REMARKS
BATTLE CREEK   PTSUNNY   77  63  61 VRB6      29.95F                  
6HR MIN TEMP:  64; 6HR MAX TEMP:  77;                                

BENTON HARBOR  FAIR      66  59  78 NW8       29.96F                  
6HR MIN TEMP:  63; 6HR MAX TEMP:  73;                                

BIG RAPIDS     PTSUNNY   74  59  58 S6        29.94F                  
6HR MIN TEMP:  55; 6HR MAX TEMP:  75;                                

HOLLAND        FAIR      72  61  68 W10       29.95F                  
6HR MIN TEMP:  62; 6HR MAX TEMP:  76;                                

GRAND RAPIDS   PTSUNNY   74  59  59 CALM      29.95F                  
IONIA          FAIR      74  56  52 CALM      29.94F                  
6HR MIN TEMP:  63; 6HR MAX TEMP:  75;                                

KALAMAZOO      PTSUNNY   78  61  55 NW5G16    29.94F                  
6HR MIN TEMP:  67; 6HR MAX TEMP:  79;                                

LUDINGTON      FAIR      64  56  76 W6        29.95S                  
6HR MIN TEMP:  55; 6HR MAX TEMP:  68;                                

MARSHALL       CLOUDY    75  61  61 CALM      29.94F                  
6HR MIN TEMP:  63; 6HR MAX TEMP:  76;                                

MOUNT PLEASANT FAIR      77  57  48 S7        29.93F                  
6HR MIN TEMP:  59; 6HR MAX TEMP:  77;                                

MUSKEGON       PTSUNNY   74  57  55 SW8       29.95F                  
6HR MIN TEMP:  65; 6HR MAX TEMP:  76;                                

SOUTH HAVEN    FAIR      69  60  74 NW8       29.95F                  
$$
MIZ016>042-181900-
NORTHERN LOWER MICHIGAN
  
CITY           SKY/WX    TMP DP  RH WIND       PRES   REMARKS
ALPENA         FAIR      71  46  40 E8        29.93F                  
6HR MIN TEMP:  54; 6HR MAX TEMP:  74;                                

BEAVER ISLAND  FAIR      67  47  49 NW3       29.93F                  
BELLAIRE       CLOUDY    74  47  39 SW3       29.93F                  
CADILLAC       PTSUNNY   74  60  59 S6        29.93F                  
CHARLEVOIX     FAIR      64  50  59 N5        29.97F                  
6HR MIN TEMP:  56; 6HR MAX TEMP:  66;                                

FRANKFORT      CLOUDY    66  54  66 W3        29.94F                  
GAYLORD        CLOUDY    71  55  56 NW7       29.94F                  
6HR MIN TEMP:  56; 6HR MAX TEMP:  71;                                

GRAYLING       FAIR      76  57  52 W10       29.92F                  
6HR MIN TEMP:  56; 6HR MAX TEMP:  76;                                

HOUGHTON LAKE  FAIR      74  52  46 SW8       29.94F                  
6HR MIN TEMP:  60; 6HR MAX TEMP:  74;                                

MANISTEE       CLOUDY    69  59  70 W12       29.93F                  
OSCODA         FAIR      73  49  42 E8        29.93F                  
6HR MIN TEMP:  51; 6HR MAX TEMP:  73;                                

PELLSTON       FAIR      75  49  39 W10       29.93F                  
6HR MIN TEMP:  58; 6HR MAX TEMP:  75;                                

ROGERS CITY    CLOUDY    61  49  65 N6        29.94S                  
TRAVERSE CITY  PTSUNNY   76  53  44 VRB3      29.91F                  
6HR MIN TEMP:  57; 6HR MAX TEMP:  76;                                

$$
MIZ007>008-015-181900-
EASTERN UPPER MICHIGAN
  
CITY           SKY/WX    TMP DP  RH WIND       PRES   REMARKS
KINROSS        FAIR      73  55  53 S10       29.92F                  
6HR MIN TEMP:  56; 6HR MAX TEMP:  73;                                

MACKINAC ISLAN FAIR      67  53  61 SW3       29.93F                  
6HR MIN TEMP:  55; 6HR MAX TEMP:  67;                                

NEWBERRY       FAIR      71  49  45 S12       29.91S HAZE             
6HR MIN TEMP:  56; 6HR MAX TEMP:  72;                                

S. S. MARIE    FAIR      74  54  49 S6        29.90F                  
6HR MIN TEMP:  57; 6HR MAX TEMP:  74;                                

MUNISING         N/A     55  51  86 VRB3      29.90S                  
6HR MIN TEMP:  53; 6HR MAX TEMP:  61; 6HR PCP:  0.08;                

$$
MIZ004>006-011>014-085-181900-
CENTRAL UPPER MICHIGAN
  
CITY           SKY/WX    TMP DP  RH WIND       PRES   REMARKS
MANISTIQUE     PTSUNNY   59  53  80 S7        29.93F                  
6HR MIN TEMP:  56; 6HR MAX TEMP:  65;                                

ESCANABA       FAIR      64  55  72 S14       29.91F                  
6HR MIN TEMP:  58; 6HR MAX TEMP:  66; 6HR PCP: TRACE;                

MENOMINEE      CLOUDY    69  60  73 S8        29.92F                  
6HR MIN TEMP:  58; 6HR MAX TEMP:  70; 6HR PCP: TRACE;                

SAWYER-GWINN   CLOUDY    63  52  67 NE14      29.90S                  
$$
MIZ001>003-009>011-084-181900-
WESTERN UPPER MICHIGAN
  
CITY           SKY/WX    TMP DP  RH WIND       PRES   REMARKS
IRON MOUNTAIN  FAIR      73  54  51 SW10      29.87F                  
6HR MIN TEMP:  58; 6HR MAX TEMP:  75;                                

HOUGHTON       CLOUDY    64  50  60 NW9       29.92F                  
6HR MIN TEMP:  50; 6HR MAX TEMP:  66;                                

COPPER HARBOR    N/A     51  48  89 CALM      29.94F                  
6HR MIN TEMP:  43; 6HR MAX TEMP:  52;                                

IRONWOOD       CLOUDY    57  52  83 W5        29.97F                  
6HR MIN TEMP:  52; 6HR MAX TEMP:  57; 6HR PCP: TRACE;                

$$

ABBREVIATIONS USED IN REMARKS
   TC - TEMPERATURE IN CELSIUS
  WCI - WIND CHILL INDEX
   HX - HEAT INDEX
  VSB - VISIBILITY